Location: Masseyville
(35.2937°N, 88.7064°W)
Time: 05:25:42
(UTC+00:00)

Daily predictions for brighter satellites

Satellite Brightness Start Highest point End
(mag) Time Altitude Azimuth Time Altitude Azimuth Time Altitude Azimuth
Orbus 7S 4.4 01:31:38 10° SW 01:33:47 21° SSE 01:36:57 10° ESE
SL-4 R/B 1.6 01:33:14 10° NW 01:36:02 54° WSW 01:38:35 10° SSE
Cosmos 1833 Rocket 2.7 01:30:47 10° NNW 01:36:25 83° ENE 01:42:02 10° SSE
STARLINK-1082 3.7 01:33:18 10° NW 01:37:26 70° NE 01:41:33 10° SE
BREEZE-M DEB 1.7 01:36:06 10° SW 01:38:20 50° SE 01:40:39 10° ENE
STARLINK-1444 1.7 01:36:22 10° SW 01:38:22 59° SE 01:40:23 10° NE
STARLINK-1452 1.7 01:36:59 10° SW 01:38:59 61° SE 01:41:00 10° NE
STARLINK-1450 1.6 01:38:15 10° SW 01:40:14 65° SE 01:42:11 10° NE
STARLINK-1436 (VISORSAT) 1.6 01:38:18 10° SW 01:40:17 65° SE 01:42:16 10° NE
FREGAT/IRIS 2.2 01:37:40 10° SSE 01:40:19 86° ENE 01:42:59 10° N
STARLINK-1392 1.6 01:38:23 10° SW 01:40:21 65° SE 01:42:18 10° NE
STARLINK-1398 1.6 01:38:21 10° SW 01:40:21 65° SE 01:42:21 10° NE
STARLINK-1414 1.6 01:38:22 10° SW 01:40:22 65° SE 01:42:21 10° NE
STARLINK-1399 1.6 01:38:24 10° SW 01:40:22 65° SE 01:42:19 10° NE
STARLINK-1415 1.6 01:38:24 10° SW 01:40:22 65° SE 01:42:20 10° NE
STARLINK-1416 1.6 01:38:23 10° SW 01:40:22 65° SE 01:42:21 10° NE
STARLINK-1394 1.6 01:38:24 10° SW 01:40:23 65° SE 01:42:20 10° NE
STARLINK-1395 1.6 01:38:25 10° SW 01:40:23 65° SE 01:42:20 10° NE
STARLINK-1393 1.6 01:38:25 10° SW 01:40:23 65° SE 01:42:20 10° NE
STARLINK-1408 1.6 01:38:24 10° SW 01:40:24 65° SE 01:42:22 10° NE
STARLINK-1396 1.6 01:38:25 10° SW 01:40:25 65° SE 01:42:21 10° NE
STARLINK-1397 1.6 01:38:26 10° SW 01:40:25 65° SE 01:42:21 10° NE
STARLINK-1401 1.6 01:38:26 10° SW 01:40:25 65° SE 01:42:21 10° NE
STARLINK-1419 1.6 01:38:25 10° SW 01:40:25 65° SE 01:42:23 10° NE
STARLINK-1404 1.6 01:38:26 10° SW 01:40:25 65° SE 01:42:23 10° NE
STARLINK-1453 1.6 01:38:27 10° SW 01:40:26 65° SE 01:42:23 10° NE
STARLINK-1402 1.6 01:38:28 10° SW 01:40:27 65° SE 01:42:24 10° NE
STARLINK-1417 1.6 01:38:28 10° SW 01:40:27 65° SE 01:42:24 10° NE
STARLINK-1420 1.6 01:38:27 10° SW 01:40:27 65° SE 01:42:26 10° NE
STARLINK-1413 1.6 01:38:29 10° SW 01:40:27 65° SE 01:42:25 10° NE
STARLINK-1406 1.6 01:38:29 10° SW 01:40:28 65° SE 01:42:25 10° NE
STARLINK-1422 1.6 01:38:28 10° SW 01:40:28 65° SE 01:42:28 10° NE
STARLINK-1460 1.6 01:38:29 10° SW 01:40:28 66° SE 01:42:28 10° NE
STARLINK-1440 1.6 01:38:31 10° SW 01:40:30 65° SE 01:42:27 10° NE
STARLINK-1458 1.6 01:38:30 10° SW 01:40:30 65° SE 01:42:29 10° NE
STARLINK-1445 1.6 01:38:32 10° SW 01:40:31 66° SE 01:42:28 10° NE
STARLINK-1443 1.6 01:38:33 10° SW 01:40:32 66° SE 01:42:29 10° NE
STARLINK-1454 1.6 01:38:33 10° SW 01:40:32 66° SE 01:42:29 10° NE
STARLINK-1457 1.6 01:38:34 10° SW 01:40:32 66° SE 01:42:30 10° NE
STARLINK-1456 1.6 01:38:34 10° SW 01:40:33 66° SE 01:42:30 10° NE
STARLINK-1451 1.6 01:38:34 10° SW 01:40:33 66° SE 01:42:30 10° NE
STARLINK-1437 1.6 01:38:33 10° SW 01:40:33 66° SE 01:42:32 10° NE
STARLINK-1446 1.6 01:38:33 10° SW 01:40:33 66° SE 01:42:33 10° NE
STARLINK-1442 1.6 01:38:36 10° SW 01:40:34 66° SE 01:42:32 10° NE
STARLINK-1447 1.6 01:38:36 10° SW 01:40:36 66° SE 01:42:35 10° NE
STARLINK-1423 1.6 01:38:36 10° SW 01:40:36 66° SE 01:42:35 10° NE
STARLINK-1455 1.6 01:38:36 10° SW 01:40:36 66° SE 01:42:35 10° NE
STARLINK-1405 1.6 01:38:38 10° SW 01:40:37 66° SE 01:42:34 10° NE
STARLINK-1421 1.6 01:38:38 10° SW 01:40:37 66° SE 01:42:34 10° NE
STARLINK-1441 1.6 01:38:37 10° SW 01:40:37 66° SE 01:42:36 10° NE
STARLINK-1407 1.6 01:38:39 10° SW 01:40:37 66° SE 01:42:34 10° NE
STARLINK-1400 1.6 01:38:39 10° SW 01:40:37 66° SE 01:42:35 10° NE
STARLINK-1410 1.6 01:38:39 10° SW 01:40:37 66° SE 01:42:35 10° NE
STARLINK-1439 1.6 01:38:40 10° SW 01:40:38 66° SE 01:42:35 10° NE
STARLINK-1448 1.6 01:38:38 10° SW 01:40:39 66° SE 01:42:38 10° NE
STARLINK-1409 1.6 01:38:40 10° SW 01:40:39 66° SE 01:42:35 10° NE
STARLINK-1449 1.6 01:38:38 10° SW 01:40:39 66° SE 01:42:38 10° NE
STARLINK-1351 1.6 01:38:41 10° SW 01:40:39 66° SE 01:42:36 10° NE
STARLINK-1370 1.6 01:38:41 10° SW 01:40:39 66° SE 01:42:36 10° NE
STARLINK-1418 1.6 01:38:41 10° SW 01:40:40 66° SE 01:42:37 10° NE
STARLINK-1434 1.6 01:38:42 10° SW 01:40:40 66° SE 01:42:37 10° NE
STARLINK-1403 1.6 01:38:42 10° SW 01:40:41 66° SE 01:42:38 10° NE
STARLINK-1433 1.6 01:38:44 10° SW 01:40:42 66° SE 01:42:39 10° NE
STARLINK-1411 1.6 01:38:45 10° SW 01:40:44 66° SE 01:42:40 10° NE
STARLINK-1438 1.6 01:38:45 10° SW 01:40:44 66° SE 01:42:41 10° NE
STARLINK-1412 1.6 01:38:46 10° SW 01:40:47 67° SE 01:42:46 10° NE
Iridium 51 4.0 01:38:09 10° S 01:41:56 77° E 01:45:28 10° N
STARLINK-1100 3.6 01:38:15 10° NW 01:42:24 78° NE 01:46:31 10° SE
Cosmos 2297 3.7 01:39:35 10° S 01:45:12 69° ESE 01:50:53 10° NNE
NOSS 2-2 (E) 3.3 01:41:46 10° SW 01:45:19 75° WNW 01:49:01 10° NNE
STARLINK-1083 3.6 01:43:12 10° NW 01:47:22 86° NE 01:51:21 11° SE
COSMOS 2406 4.2 01:41:54 10° NNW 01:47:24 48° WSW 01:52:51 10° S
Meteor 2-4 Rocket 3.8 01:42:57 10° S 01:48:18 80° W 01:53:41 10° N
Meteor 1-12 Rocket 4.5 01:43:33 10° N 01:49:08 54° E 01:54:45 10° SSE
STARLINK-29 3.1 01:47:10 10° SSW 01:50:18 51° SE 01:53:26 10° NE
Cosmos 2279 Rocket 4.4 01:45:10 10° N 01:51:08 47° E 01:57:02 10° SSE
STARLINK-1125 3.6 01:48:11 10° NW 01:52:20 85° SW 01:56:09 12° SE
Cosmos 2082 Rocket 2.3 01:46:47 10° NNW 01:52:30 68° ENE 01:58:07 10° SSE
Cosmos 2369 Rocket 3.3 01:48:53 10° SSE 01:53:11 22° E 01:57:28 10° NE
Cosmos 1975 3.8 01:49:26 10° NNW 01:53:19 49° W 01:57:10 10° SSW
ISS -3.1 01:51:51 10° WNW 01:55:07 49° SW 01:58:06 12° SSE
Cosmos 332 Rocket 4.4 01:50:39 10° SSW 01:55:30 63° WNW 02:00:22 10° N
USA 186 2.8 01:54:26 10° SSW 01:56:54 36° W 01:59:33 10° NNW
STARLINK-1109 3.7 01:53:09 10° NW 01:57:17 76° SW 02:00:55 13° SE
STARLINK-1091 3.8 01:58:08 10° NW 02:02:15 68° SW 02:05:42 14° SE
SJ-6B 3.2 02:01:38 10° S 02:05:17 59° W 02:08:59 10° NNW
USA 267 4.1 01:59:07 10° SSE 02:05:19 45° SW 02:11:32 10° WNW
STARLINK-1072 3.9 02:03:11 10° NW 02:07:16 60° SW 02:10:31 15° SSE
H-2A ROCKET BODY 3.8 02:03:38 10° SSW 02:07:43 25° SE 02:19:01 10° E
Sakura Rocket 4.4 02:02:48 10° WSW 02:07:57 43° S 02:13:42 15° ESE
Lacrosse 5 2.5 02:04:35 10° NW 02:09:28 50° SW 02:13:58 12° SSE
NOSS 2-2 (C) 4.2 02:07:35 10° SW 02:11:03 46° NW 02:14:37 10° NNE
STARLINK-1096 4.1 02:08:09 10° NW 02:12:11 53° SW 02:15:16 16° SSE
SL-08 RB Rocket 4.5 02:09:09 10° S 02:13:36 52° W 02:18:03 10° NNW
ATLAS 2AS CENTAUR R/B 3.5 02:09:03 10° S 02:16:01 36° ESE 02:23:07 10° NE
Aureole 2 Rocket 4.3 02:13:55 10° SW 02:16:40 28° WNW 02:19:18 10° N
STARLINK-1079 4.3 02:13:12 10° WNW 02:17:11 47° SW 02:20:05 17° SSE
Meteor 1-23 Rocket 4.3 02:12:16 10° S 02:17:51 61° E 02:23:24 10° NNE
Cosmos 1066 Rocket 4.1 02:14:49 10° S 02:20:06 61° E 02:25:23 10° NNE
MetOp-A 4.3 02:16:42 10° S 02:22:01 73° WSW 02:27:23 10° NNW
STARLINK-1116 4.4 02:18:13 10° WNW 02:22:08 42° SW 02:24:51 18° SSE
STARLINK-52 3.3 02:22:31 10° SW 02:25:42 68° NW 02:28:53 10° NE
STARLINK-1101 4.5 02:25:29 10° NNW 02:29:25 40° NE 02:31:43 21° E
H-2A R/B 4.0 02:28:58 10° SSW 02:30:41 12° S 02:31:36 11° S
COSMOS 2455 4.1 02:30:26 19° ESE 02:31:00 19° ESE 02:35:05 10° ENE
Milstar 3 Cent rocket 3.8 02:25:43 10° SW 02:32:22 41° SSE 02:45:22 10° E
STARLINK-1102 4.3 02:30:27 10° NW 02:34:26 44° NE 02:36:32 24° E
Chunghua 1 4.5 02:30:44 10° W 02:34:34 77° S 02:36:25 29° ESE
Spot 2 Rocket 4.0 02:35:31 24° SE 02:38:01 42° ENE 02:42:44 10° N
Cosmos 1741 Rocket 4.3 02:33:03 10° NNW 02:38:13 65° WSW 02:42:12 17° S
GPS 2-04 Rocket1 3.0 02:36:07 10° W 02:39:21 39° SSW 02:40:07 34° SSE
STARLINK-1111 4.2 02:35:25 10° NW 02:39:26 49° NE 02:41:19 27° E
Okean 1 Rocket 3.2 02:35:15 10° N 02:39:37 56° E 02:41:36 30° SSE
SL-4 R/B 3.9 02:37:00 10° WSW 02:41:20 39° NW 02:45:51 10° NE
FALCON 9 DEB 3.1 02:38:10 10° SW 02:41:36 84° NW 02:45:01 10° NE
STARLINK-1073 4.0 02:40:21 10° NW 02:44:25 54° NE 02:46:05 31° ESE
SPOT 5 4.4 02:46:23 20° E 02:48:11 24° ENE 02:52:25 10° NNE
STARLINK-1121 3.8 02:45:17 10° NW 02:49:23 60° NE 02:50:51 36° ESE
IGS 5A 4.0 02:48:39 34° ESE 02:49:48 42° ENE 02:53:43 10° N
SL-27 R/B 4.1 02:48:01 10° NNE 02:50:42 20° ENE 02:50:47 20° ENE
Cosmos 2263 4.2 02:48:43 19° S 02:52:38 54° ESE 02:58:05 10° NNE
ATLAS CENTAUR R/B 1.8 02:52:16 36° SSE 02:53:25 44° ESE 02:57:29 10° NE
STARLINK-1106 3.7 02:50:15 10° NW 02:54:23 67° NE 02:55:39 41° ESE
STARLINK-1362 4.2 02:56:04 35° E 02:56:04 35° E 02:58:50 10° ENE
Okean 2 3.5 02:54:11 41° SE 02:55:11 52° E 02:59:14 10° NNE
Terra 3.5 02:55:01 17° E 02:55:58 18° ENE 02:59:11 10° NNE
Resurs 01 Rocket 2.3 02:54:43 20° S 02:57:34 51° W 03:01:54 10° NNW
USA 245 3.3 02:58:45 39° NNE 02:58:45 39° NNE 03:00:36 10° N
ASTRO E2 3.8 02:55:35 10° WSW 02:58:52 28° SSW 02:58:52 28° SSW
STARLINK-1373 4.1 03:00:25 38° E 03:00:25 38° E 03:03:13 10° ENE
STARLINK-1112 3.6 02:55:13 10° NW 02:59:22 75° NE 03:00:26 47° ESE
Abrixas rocket 2.2 02:57:29 10° WNW 03:00:09 57° WSW 03:00:09 57° WSW
APEX 4.3 02:56:34 10° SSW 03:03:18 81° ESE 03:08:55 10° NNE
STARLINK-1390 3.9 03:04:35 44° E 03:04:35 44° E 03:07:38 10° NE
Cosmos 1242 Rocket 3.8 03:04:39 29° ENE 03:04:39 29° ENE 03:07:11 10° NNE
Cosmos 1943 Rocket 2.8 02:58:45 10° SW 03:04:10 56° WNW 03:09:40 10° NNE
Cosmos 1302 Rocket 4.2 02:58:55 10° SSW 03:04:10 71° WNW 03:09:28 10° NNE
STARLINK-1128 3.5 03:00:11 10° NW 03:04:20 83° NE 03:05:13 54° SE
Cosmos 2026 Rocket 4.2 03:02:16 32° SSE 03:04:57 52° E 03:11:06 10° NNE
SPOT 1/Viking Rocket 3.7 03:03:35 38° SE 03:05:20 56° ENE 03:10:22 10° N
STARLINK-1365 3.4 03:07:35 59° SSE 03:07:54 62° SE 03:11:53 10° NE
STARLINK-1113 3.5 03:05:10 10° NW 03:09:19 88° SW 03:10:01 61° SE
STARLINK-1119 3.5 03:10:09 10° NW 03:14:17 79° SW 03:14:47 66° SSE
CENTAUR R/B 3.8 03:06:57 10° NNW 03:14:50 46° NE 03:19:27 26° ESE
Cosmos 1766 3.1 03:12:44 10° N 03:16:45 82° E 03:17:08 71° SSE
STARLINK-1114 3.5 03:15:09 10° NW 03:19:16 71° SW 03:19:34 67° SSW
ATLAS 3B R/B 4.4 03:16:42 10° N 03:21:53 22° NE 03:25:46 14° E
Cosmos 1992 Rocket 3.9 03:21:20 51° SSE 03:22:20 61° ESE 03:27:28 10° NNE
STARLINK-1338 3.4 03:23:32 76° NE 03:23:32 76° NE 03:27:11 10° NE
STARLINK-1130 (DARKSAT) 3.7 03:20:07 10° NW 03:24:13 63° SW 03:24:21 62° SW
Cosmos 1656 Rocket 3.5 03:22:48 38° S 03:24:58 73° ESE 03:30:32 10° NNE
Meteor 1-21 4.1 03:25:54 48° SSE 03:27:23 68° E 03:32:57 10° NNE
STARLINK-1084 3.9 03:25:08 10° NW 03:29:08 56° SW 03:29:08 56° SW
STARLINK-1371 3.5 03:31:19 77° WNW 03:31:24 77° NW 03:35:21 10° NE
Cosmos 292 Rocket 4.3 03:30:53 23° SW 03:33:43 57° WNW 03:38:31 10° N
STARLINK-1098 4.1 03:30:08 10° NW 03:33:54 49° WSW 03:33:54 49° WSW
STARLINK-1341 3.6 03:35:17 68° WNW 03:35:32 71° NW 03:39:27 10° NE
NOSS 3-2 (C) 4.2 03:27:50 10° NNW 03:35:37 66° ENE 03:39:06 38° SE
Cosmos 2369 Rocket 3.3 03:31:30 10° SW 03:36:51 42° WNW 03:42:13 10° N
SL-8 R/B 3.6 03:32:06 10° WNW 03:36:53 68° SW 03:37:06 67° SSW
NOSS 3-4 (A) 3.6 03:33:03 10° SW 03:38:53 67° WNW 03:45:02 10° NNE
NOSS 3-4 (C) 3.6 03:33:09 10° SW 03:39:00 68° WNW 03:45:09 10° NNE
STARLINK-1123 4.4 03:35:09 10° WNW 03:38:41 42° WSW 03:38:41 42° WSW
STARLINK-1374 3.8 03:39:17 60° WNW 03:39:38 65° NW 03:43:33 10° NE
ATLAS 3B CENTAUR R/B 3.4 03:23:53 10° W 03:39:41 56° SSW 03:42:24 42° SE
ERS-1 Rocket 2.8 03:39:13 66° SSE 03:39:57 89° ENE 03:45:01 10° NNW
Cosmos 1655 Rocket 4.4 03:40:04 41° ESE 03:40:36 42° E 03:46:25 10° NNE
OAO 1 4.4 03:37:20 10° W 03:42:51 82° S 03:43:39 65° ESE
BREEZE-M DEB (TANK) 3.6 03:33:42 10° NW 03:43:24 61° NNE 03:44:45 44° E
STARLINK-1339 4.0 03:43:14 52° W 03:43:48 59° NW 03:47:42 10° NE
Cosmos 1975 Rocket 4.0 03:42:41 33° SW 03:44:02 44° W 03:48:15 10° N
Cosmos 1025 Rocket 3.7 03:45:12 43° NE 03:45:12 43° NE 03:48:26 10° NNE
STARLINK-1377 4.2 03:47:11 44° W 03:47:58 53° NW 03:51:50 10° NE
STARLINK-1353 4.3 03:51:07 38° W 03:52:09 49° NW 03:55:59 10° NE
Cosmos 1470 3.7 03:51:33 10° N 03:54:15 41° NNE 03:54:15 41° NNE
Cosmos 1726 4.4 03:53:54 10° NNE 03:55:12 17° NE 03:55:12 17° NE
Cosmos 1867 4.0 03:51:52 10° NNW 03:57:10 50° ENE 03:57:37 49° ENE
Cosmos 968 Rocket 3.3 03:52:40 10° NNW 03:57:48 79° ENE 03:57:51 79° E
ATLAS 5 CENTAUR R/B 2.7 03:51:04 10° SW 04:00:24 67° WNW 04:03:28 10° NNE
RESURS DK-1 4.2 04:08:27 24° NE 04:08:27 24° NE 04:10:13 10° NNE
ATLAS 2AS CENTAUR R/B 3.9 03:59:11 10° SW 04:06:49 49° NW 04:14:31 10° NNE
Cosmos 1271 Rocket 4.2 04:16:44 34° NW 04:16:44 34° NW 04:19:45 10° N
COSMOS 2455 3.4 04:13:27 29° SW 04:16:23 56° WNW 04:22:18 10° NNE
Cosmos 1953 3.9 04:12:33 10° N 04:14:45 29° NNE 04:14:45 29° NNE
Cosmos 1455 Rocket 4.3 04:14:35 10° NNW 04:18:11 35° W 04:18:11 35° W
Meteor 2-19 Rocket 4.3 04:22:19 72° E 04:22:21 72° E 04:28:27 10° NNE
Cosmos 1417 Rocket 4.4 04:16:36 10° N 04:22:58 85° W 04:23:35 74° SSW
Thor Agena Rocket 3.9 04:18:50 10° NNE 04:23:11 56° NE 04:23:11 56° NE
SPOT 5 4.0 04:25:37 37° WSW 04:25:57 37° W 04:30:54 10° NNW
Cosmos 1707 4.5 04:28:49 31° NW 04:28:49 31° NW 04:31:22 10° N
ATLAS CENTAUR R/B 4.1 04:29:30 10° W 04:32:27 17° NW 04:35:18 10° N
Terra 2.8 04:33:54 39° W 04:33:54 39° W 04:37:51 10° NNW
Meteor 2-10 4.2 04:31:19 10° N 04:35:34 64° NNW 04:35:34 64° NNW
Cosmos 1503 Rocket 4.5 04:33:29 10° NNW 04:38:11 56° WNW 04:38:11 56° WNW
Meteor 2-15 4.4 04:43:17 10° N 04:49:06 73° NE 04:49:06 73° NE
SeaSat 1 3.3 04:46:46 10° NNE 04:50:08 44° NE 04:50:08 44° NE
Cosmos 2297 Rocket 4.1 04:48:36 10° NNE 04:52:30 19° NE 04:53:23 18° ENE
S3M 4.2 04:48:57 10° NNW 04:55:02 58° W 04:55:11 58° W
Cosmos 2315 Rocket 4.0 04:52:13 10° N 04:58:03 68° ENE 04:58:03 68° ENE
CENTAUR R/B 3.7 04:57:47 10° NW 05:05:39 44° WSW 05:06:37 43° SW
Meteor 2-15 Rocket 4.5 05:05:17 10° N 05:10:54 76° N 05:10:54 76° N
Milstar 3 Cent rocket 4.4 05:01:26 10° WSW 05:12:05 67° S 05:36:00 10° E
ATLAS 3B R/B 2.7 05:06:19 10° NW 05:13:00 75° WSW 05:13:00 75° WSW
Cosmos 1697 Rocket 4.4 05:15:47 21° ENE 05:15:47 21° ENE 05:18:20 10° NE
Exosat Rocket 4.3 05:10:27 10° NNW 05:17:55 60° W 05:17:55 60° W
ALOS 2 4.2 05:23:18 33° N 05:23:18 33° N 05:25:45 10° N
Cosmos 2227 Rocket 3.4 05:25:23 10° N 05:30:27 32° ENE 05:30:27 32° ENE
Meteor 2-5 Rocket 4.5 05:41:38 45° NW 05:41:38 45° NW 05:46:21 10° N
Cosmos 1745 Rocket 4.3 05:50:15 59° NE 05:50:15 59° NE 05:55:29 10° NNE
FALCON 9 R/B 3.8 05:53:12 36° E 05:53:12 36° E 06:00:51 10° E
Lacrosse 4 Rocket 3.8 05:49:46 10° N 05:52:03 18° NE 05:52:03 18° NE
BREEZE-M DEB (TANK) 4.4 05:54:01 10° NW 06:02:43 16° ESE 06:04:50 10° ESE
CZ-4C R/B 2.8 06:00:11 47° N 06:00:11 47° N 06:04:26 10° NNE
Cosmos 1980 Rocket 3.2 06:12:34 37° ENE 06:12:34 37° ENE 06:16:27 10° NE
SJ 16-02 3.1 06:10:31 10° N 06:12:52 30° N 06:12:52 30° N
Cosmos 2369 4.1 06:21:00 59° N 06:21:00 59° N 06:25:35 10° NNE
Cosmos 2297 Rocket 3.1 06:31:22 10° NNW 06:35:10 40° NW 06:35:10 40° NW
Cosmos 1709 Rocket 4.0 06:38:36 77° NNE 06:38:36 77° NNE 06:44:18 10° N
USA 215 3.7 06:35:30 27° ESE 06:39:03 56° NE 06:45:26 10° NW
Cosmos 2219 4.5 06:34:18 10° NW 06:37:35 31° WNW 06:37:35 31° WNW
SL-16 R/B 4.2 06:39:30 19° ESE 06:42:15 27° ENE 06:47:16 10° N
Cosmos 1937 Rocket 4.0 06:41:30 10° NNW 06:45:39 56° N 06:45:39 56° N
SL-19 R/B 4.4 06:42:19 10° NNE 06:47:39 72° ENE 06:47:39 72° ENE
Cosmos 2322 Rocket 4.0 06:49:46 21° E 06:49:46 21° E 06:53:35 10° NE
Cosmos 2082 4.0 06:45:09 10° NNW 06:49:50 63° NNW 06:49:50 63° NNW
Cosmos 489 Rocket 4.5 06:53:15 70° E 06:53:15 70° E 06:59:15 10° NNE
Cosmos 1898 Rocket 4.5 06:49:11 10° NNW 06:52:42 40° NW 06:52:42 40° NW
Cosmos 2278 4.1 06:57:14 55° NW 06:57:14 55° NW 07:02:18 10° NNE
Cosmos 1697 Rocket 3.7 06:57:30 35° WNW 06:57:30 35° WNW 07:02:36 10° N
Cosmos 2285 Rocket 3.9 06:57:15 10° NNW 07:03:38 88° ENE 07:03:42 87° ESE
Resurs 1-4 Rocket 2.5 07:08:02 10° NNE 07:13:02 53° E 07:13:02 53° E
Cosmos 2227 Rocket 3.8 07:09:30 10° NW 07:12:15 23° WNW 07:12:15 23° WNW
IRAS Rocket 4.2 07:15:35 79° NW 07:15:35 79° NW 07:20:48 10° NNW
SL-16 R/B 2.5 07:24:07 54° ESE 07:24:14 54° ESE 07:29:44 10° NNE
Cosmos 2074 Rocket 3.9 07:24:26 71° SSE 07:25:05 81° E 07:31:23 10° N
Lacrosse 4 Rocket 4.0 07:27:52 10° NW 07:28:20 12° NW 07:28:20 12° NW
Cosmos 2298 Rocket 4.0 07:29:39 10° NNW 07:34:59 78° ENE 07:35:12 76° ESE
CZ-2D R/B 1.9 07:36:31 10° N 07:41:45 83° WNW 07:41:49 82° W
BREEZE-M DEB (TANK) 3.0 07:41:43 73° WNW 07:41:59 76° NNW 07:52:20 10° NE
STARLINK-1287 4.5 07:44:19 47° N 07:44:19 47° N 07:47:39 10° NE
Cosmos 2360 Rocket 3.3 07:46:14 30° SE 07:47:31 34° ESE 07:52:33 10° NE
Cosmos 2184 Rocket 3.9 07:48:41 61° WSW 07:49:25 66° W 07:55:34 10° N
Cosmos 2327 Rocket 4.4 07:50:48 57° S 07:52:15 90° S 07:58:40 10° N
STARLINK-1302 4.5 07:53:53 44° NNW 07:53:53 44° NNW 07:57:33 10° NE
Cosmos 1980 Rocket 3.7 07:54:20 21° WNW 07:55:17 22° WNW 07:59:39 10° N
Cosmos 1076 Rocket 4.0 07:55:10 51° ESE 07:55:22 51° E 07:59:37 10° NNE
Cosmos 1892 3.5 07:56:58 48° ENE 07:56:58 48° ENE 08:00:14 10° NNE
Cosmos 1610 Rocket 4.3 07:57:00 57° SSW 07:58:20 86° W 08:04:33 10° N
CRYOSAT 2 4.2 07:54:49 10° N 07:59:44 90° ESE 08:00:05 78° S
STARLINK-24 4.2 08:01:58 47° E 08:01:58 47° E 08:05:10 10° NE
CBERS-1 4.0 07:56:33 10° NNE 08:01:41 74° ESE 08:02:33 59° SSE
Cosmos 1869 3.6 07:58:49 10° N 08:02:21 61° NE 08:02:21 61° NE
Timation 1 Rocket 4.3 07:59:09 10° NNW 08:05:02 63° WSW 08:05:50 57° SW
Cosmos 2219 Rocket 4.5 08:02:59 10° SE 08:06:01 15° E 08:09:03 10° ENE
STARLINK-1025 4.2 08:11:08 46° ESE 08:11:08 46° ESE 08:14:49 10° ENE
STARLINK-61 4.4 08:12:44 40° NW 08:12:45 40° NW 08:16:27 10° NNE
STARLINK-25 4.0 08:14:07 48° ENE 08:14:07 48° ENE 08:16:43 10° NE
STARLINK-1017 4.0 08:15:54 52° SE 08:15:54 52° SE 08:19:48 10° NE
Cosmos 2263 Rocket 2.0 08:12:28 10° NNW 08:18:03 75° WSW 08:19:55 42° S
IRIDIUM 106 4.2 08:18:51 50° S 08:20:15 87° W 08:25:30 10° N
Cosmos 962 Rocket 4.4 08:18:03 38° S 08:20:35 83° E 08:26:47 10° N
STARLINK-1023 3.8 08:20:41 59° SE 08:20:44 59° SE 08:24:48 10° NE
USA 215 3.8 08:22:46 35° WSW 08:22:46 35° WSW 08:28:04 10° WNW
Cosmos 2154 Rocket 4.2 08:21:54 43° SW 08:23:37 55° W 08:29:44 10° N
ADEOS II 2.0 08:18:23 10° NNE 08:23:39 89° WNW 08:25:16 46° SSW
CZ-4B R/B 4.1 08:19:12 10° N 08:24:10 44° WNW 08:25:12 40° WSW
Shenzhou-11 Module 4.5 08:25:20 14° N 08:25:23 14° N 08:26:51 10° NNE
SL-16 R/B 2.9 08:24:36 40° WSW 08:25:33 42° W 08:31:23 10° NNW
STARLINK-1007 3.6 08:25:30 65° SSE 08:25:44 67° SE 08:29:50 10° NE
STARLINK-81 3.2 08:26:24 79° NNE 08:26:24 79° NNE 08:29:51 10° NE
NPP 4.4 08:21:58 10° N 08:26:50 36° WNW 08:27:54 32° W
STARLINK-54 3.3 08:28:09 71° NNW 08:28:09 71° NNW 08:31:41 10° NE
IDEFIX/ARIANE 42P 4.1 08:23:57 10° NE 08:28:31 29° E 08:32:34 12° SSE
STARLINK-77 3.2 08:29:34 78° NNW 08:29:34 78° NNW 08:33:08 10° NE
STARLINK-1048 3.5 08:30:15 66° S 08:30:41 75° SE 08:34:49 10° NE
Cosmos 2221 2.8 08:27:03 10° NNW 08:31:14 48° W 08:31:16 48° W
IRS-1D 3.7 08:26:16 10° N 08:31:24 57° WNW 08:32:44 43° WSW
Cosmos 1408 2.4 08:31:51 78° S 08:32:05 90° E 08:35:46 10° N
Cosmos 2322 Rocket 2.7 08:31:35 36° WSW 08:33:11 45° WNW 08:38:33 10° N
Cosmos 1825 2.6 08:32:28 43° SE 08:33:20 55° E 08:37:02 10° NNE
STARLINK-79 3.2 08:34:16 68° WNW 08:34:25 69° NW 08:38:01 10° NE
In-Cosmos 22 Rocket 4.4 08:33:14 41° SW 08:34:49 54° W 08:40:13 10° N
Cosmos 1842 Rocket 4.4 08:30:53 10° NNW 08:34:40 34° W 08:34:40 34° W
STARLINK-1049 3.5 08:35:03 63° SSW 08:35:40 83° SE 08:39:49 10° NE
STARLINK-78 3.3 08:35:49 64° WNW 08:36:01 65° NW 08:39:36 10° NE
IRS-1C 4.0 08:30:46 10° NNE 08:36:07 84° WNW 08:38:18 37° SSW
STARLINK-57 3.4 08:37:28 56° WNW 08:37:45 58° NW 08:41:20 10° NE
STARLINK-49 3.4 08:38:57 57° WNW 08:39:16 60° NW 08:42:51 10° NE
ARIANE 5 R/B 2.5 08:34:20 10° NNE 08:39:20 76° ESE 08:41:40 32° S
STARLINK-1051 3.5 08:39:48 57° SW 08:40:37 88° NW 08:44:45 10° NE
STARLINK-27 3.4 08:40:31 54° WNW 08:40:53 58° NW 08:44:28 10° NE
STARLINK-74 3.5 08:42:04 51° WNW 08:42:31 56° NW 08:46:04 10° NE
STARLINK-39 3.6 08:43:32 48° WNW 08:44:02 53° NW 08:47:34 10° NE
STARLINK-31 3.7 08:45:04 45° WNW 08:45:38 50° NW 08:49:07 10° NE
STARLINK-69 3.9 08:46:44 39° WNW 08:47:25 44° NW 08:50:51 10° NNE
STARLINK-21 3.8 08:48:11 40° WNW 08:48:53 46° NW 08:52:21 10° NE
Cosmos 2058 3.9 08:48:46 29° W 08:49:04 30° WNW 08:52:48 10° NNW
Cosmos 1315 Rocket 4.0 08:46:15 10° NNW 08:49:04 26° WNW 08:49:04 26° WNW
STARLINK-1028 3.6 08:49:23 44° WSW 08:50:34 71° NW 08:54:43 10° NE
STARLINK-45 4.1 08:49:56 34° WNW 08:50:44 40° NW 08:54:08 10° NNE
STARLINK-70 4.1 08:51:10 34° WNW 08:52:00 40° NW 08:55:23 10° NNE
Resurs 1-4 Rocket 3.8 08:49:14 10° NNW 08:52:35 17° WNW 08:54:06 15° W
STARLINK-1010 3.8 08:52:24 38° WSW 08:53:50 63° NW 08:58:03 10° NE
STARLINK-76 4.1 08:53:00 34° WNW 08:53:55 41° NW 08:57:20 10° NNE
Cosmos 2366 rocket 4.0 08:50:31 19° S 08:55:09 82° E 09:01:29 10° N
STARLINK-23 4.1 08:54:26 32° WNW 08:55:23 39° NW 08:58:46 10° NNE
STARLINK-1021 3.8 08:54:13 38° WSW 08:55:36 64° NW 08:59:43 10° NE
STARLINK-32 4.2 08:55:55 30° WNW 08:56:55 38° NW 09:00:17 10° NNE
Cosmos 2237 4.5 08:54:21 30° SW 08:56:59 55° WNW 09:02:36 10° NNE
STARLINK-40 4.3 08:57:35 29° WNW 08:58:42 37° NW 09:02:02 10° NNE
CZ-3A R/B 4.4 08:55:48 10° SSE 08:58:47 13° SE 09:03:28 10° ESE
STARLINK-44 4.3 08:59:01 28° WNW 09:00:10 35° NW 09:03:29 10° NNE
STARLINK-1019 3.9 08:58:57 33° WSW 09:00:32 57° NW 09:04:38 10° NE
BREEZE-M TANK 3.9 09:00:19 19° S 09:01:30 22° SE 09:03:59 10° E
CZ-4C R/B 4.5 08:58:15 10° SE 09:01:39 39° ENE 09:05:04 10° N
GEOS 3 Rocket 3.6 08:56:49 10° SSE 09:01:51 58° WSW 09:07:01 10° NW
STARLINK-36 4.4 09:02:01 25° W 09:03:17 33° NW 09:06:33 10° NNE
STARLINK-1012 4.1 09:03:44 29° WSW 09:05:32 52° NW 09:09:36 10° NE
COBE Rocket 3.9 09:02:52 14° S 09:07:09 73° W 09:12:17 10° NNW
SL-16 R/B 3.9 09:05:59 15° W 09:08:38 20° WNW 09:12:41 10° N
Spot 4 Rocket 4.0 09:04:18 10° N 09:09:26 77° WNW 09:12:59 20° SSW
COSMOS 2428 3.3 09:06:24 14° S 09:11:10 55° ESE 09:16:42 10° NNE
Cosmos 1844 Rocket 3.2 09:07:24 10° NNW 09:12:57 62° ENE 09:18:26 10° SSE
Cosmos 1818 4.4 09:10:05 14° S 09:14:30 45° ESE 09:19:40 10° NE
STARLINK-1026 4.4 09:13:18 22° W 09:15:31 42° NW 09:19:28 10° NNE
USA 229 DEB 4.2 09:08:33 10° NW 09:15:34 46° WSW 09:22:47 10° S
USA 229 4.2 09:08:39 10° NW 09:15:40 46° WSW 09:22:55 10° S
Cosmos 1408 Rocket 3.8 09:11:55 13° S 09:15:45 66° E 09:20:00 10° NNE
NOSS 3-1 (C) 4.5 09:09:32 10° NW 09:17:03 44° WSW 09:25:16 10° S
Meteor 1-28 Rocket 3.2 09:16:03 19° S 09:18:35 56° W 09:22:15 10° NNW
Cosmos 1538 Rocket 4.1 09:15:42 21° SSW 09:19:15 65° WNW 09:24:37 10° N
STARLINK-60 2.8 09:20:19 10° NW 09:23:28 60° SW 09:26:36 10° SE
CZ-2D R/B 3.9 09:20:06 10° N 09:24:14 48° WNW 09:27:02 19° SW
NOSS 3-1 (A) 4.2 09:17:05 10° NW 09:24:56 59° WSW 09:33:37 10° SSE
SL-4 R/B 2.2 09:20:20 10° NW 09:25:04 73° SW 09:29:30 10° SE
Cosmos 1727 Rocket 4.1 09:19:22 10° N 09:25:34 77° E 09:31:44 10° S
SL-08 R/B 3.9 09:25:19 18° SSW 09:28:10 34° W 09:32:21 10° NNW
Cosmos 2360 Rocket 3.3 09:28:00 16° WSW 09:31:28 29° WNW 09:36:19 10° N
STARLINK-1444 2.1 09:29:33 10° NW 09:31:51 61° SW 09:34:18 10° SE
ERS-2 2.5 09:29:06 14° S 09:32:04 44° W 09:35:35 10° NNW
H-2A R/B 2.1 09:27:46 10° S 09:32:07 66° WSW 09:36:35 10° NNW
STARLINK-1452 2.1 09:30:11 10° NW 09:32:29 59° SW 09:34:55 10° SE
STARLINK-1033 4.2 09:29:45 17° SSW 09:32:46 50° SE 09:36:47 10° NE
Cosmos 1606 2.6 09:29:04 10° N 09:32:51 79° W 09:36:38 10° S
Cosmos 1766 Rocket 4.1 09:30:07 18° SW 09:32:55 40° W 09:37:00 10° N
STARLINK-1450 2.1 09:31:08 10° NW 09:33:22 56° SW 09:35:45 10° SE
Okean 3 Rocket 4.4 09:30:43 18° SW 09:33:28 35° WNW 09:37:38 10° NNW
STARLINK-1392 2.1 09:31:19 10° NW 09:33:33 55° SW 09:35:56 10° SSE
STARLINK-1415 2.1 09:31:19 10° NW 09:33:34 55° SW 09:35:57 10° SSE
STARLINK-1399 2.1 09:31:20 10° NW 09:33:35 55° SW 09:35:58 10° SSE
STARLINK-1394 2.1 09:31:21 10° NW 09:33:35 55° SW 09:35:59 10° SSE
STARLINK-1395 2.1 09:31:21 10° NW 09:33:36 55° SW 09:35:59 10° SSE
STARLINK-1393 2.1 09:31:21 10° NW 09:33:36 55° SW 09:35:59 10° SSE
STARLINK-1401 2.1 09:31:22 10° NW 09:33:36 55° SW 09:35:59 10° SSE
STARLINK-1396 2.1 09:31:22 10° NW 09:33:37 55° SW 09:36:00 10° SSE
STARLINK-1453 2.1 09:31:22 10° NW 09:33:37 55° SW 09:36:00 10° SSE
STARLINK-1397 2.1 09:31:22 10° NW 09:33:37 55° SW 09:36:00 10° SSE
STARLINK-1404 2.1 09:31:23 10° NW 09:33:38 55° SW 09:36:01 10° SSE
STARLINK-1417 2.1 09:31:25 10° NW 09:33:39 55° SW 09:36:02 10° SSE
STARLINK-1402 2.1 09:31:25 10° NW 09:33:39 55° SW 09:36:02 10° SSE
STARLINK-1413 2.1 09:31:26 10° NW 09:33:40 55° SW 09:36:03 10° SSE
STARLINK-1406 2.1 09:31:27 10° NW 09:33:42 55° SW 09:36:04 10° SSE
STARLINK-1440 2.1 09:31:28 10° NW 09:33:42 55° SW 09:36:06 10° SSE
STARLINK-1414 2.1 09:31:27 10° NW 09:33:44 56° SW 09:36:08 10° SSE
STARLINK-1445 2.1 09:31:29 10° NW 09:33:44 55° SW 09:36:07 10° SSE
STARLINK-1443 2.1 09:31:30 10° NW 09:33:44 55° SW 09:36:07 10° SSE
STARLINK-1454 2.1 09:31:30 10° NW 09:33:45 55° SW 09:36:08 10° SSE
STARLINK-1416 2.1 09:31:29 10° NW 09:33:45 56° SW 09:36:10 10° SSE
STARLINK-1457 2.1 09:31:31 10° NW 09:33:46 55° SW 09:36:08 10° SSE
STARLINK-1408 2.1 09:31:29 10° NW 09:33:46 56° SW 09:36:11 10° SSE
STARLINK-1456 2.1 09:31:32 10° NW 09:33:46 55° SW 09:36:09 10° SSE
STARLINK-1451 2.1 09:31:32 10° NW 09:33:46 55° SW 09:36:09 10° SSE
STARLINK-1442 2.1 09:31:33 10° NW 09:33:48 55° SW 09:36:11 10° SSE
STARLINK-1436 (VISORSAT) 2.1 09:31:32 10° NW 09:33:49 56° SW 09:36:14 10° SSE
STARLINK-1419 2.1 09:31:33 10° NW 09:33:50 56° SW 09:36:15 10° SSE
STARLINK-1405 2.1 09:31:36 10° NW 09:33:50 55° SW 09:36:13 10° SSE
STARLINK-1398 2.1 09:31:34 10° NW 09:33:51 56° SW 09:36:17 10° SSE
STARLINK-1421 2.1 09:31:36 10° NW 09:33:51 55° SW 09:36:14 10° SSE
STARLINK-1410 2.1 09:31:37 10° NW 09:33:51 55° SW 09:36:14 10° SSE
STARLINK-1400 2.1 09:31:37 10° NW 09:33:52 55° SW 09:36:15 10° SSE
STARLINK-1407 2.1 09:31:38 10° NW 09:33:52 55° SW 09:36:16 10° SSE
STARLINK-1439 2.1 09:31:38 10° NW 09:33:53 55° SW 09:36:15 10° SSE
STARLINK-1409 2.1 09:31:39 10° NW 09:33:54 55° SW 09:36:17 10° SSE
STARLINK-1351 2.1 09:31:40 10° NW 09:33:54 55° SW 09:36:17 10° SSE
STARLINK-1370 2.1 09:31:40 10° NW 09:33:54 55° SW 09:36:17 10° SSE
STARLINK-1418 2.1 09:31:40 10° NW 09:33:54 55° SW 09:36:18 10° SSE
STARLINK-1422 2.1 09:31:38 10° NW 09:33:54 55° SW 09:36:20 10° SSE
STARLINK-1420 2.1 09:31:38 10° NW 09:33:55 55° SW 09:36:20 10° SSE
STARLINK-1434 2.1 09:31:41 10° NW 09:33:55 55° SW 09:36:18 10° SSE
STARLINK-1403 2.1 09:31:42 10° NW 09:33:56 55° SW 09:36:19 10° SSE
STARLINK-1460 2.1 09:31:40 10° NW 09:33:57 55° SW 09:36:23 10° SSE
STARLINK-1433 2.1 09:31:43 10° NW 09:33:57 54° SW 09:36:21 10° SSE
STARLINK-1411 2.1 09:31:45 10° NW 09:33:58 54° SW 09:36:22 10° SSE
STARLINK-1438 2.1 09:31:45 10° NW 09:33:59 54° SW 09:36:22 10° SSE
STARLINK-1458 2.1 09:31:43 10° NW 09:34:00 55° SW 09:36:26 10° SSE
STARLINK-1423 2.1 09:31:46 10° NW 09:34:04 55° SW 09:36:29 10° SSE
STARLINK-1446 2.2 09:31:47 10° NW 09:34:05 55° SW 09:36:30 10° SSE
STARLINK-1437 2.1 09:31:49 10° NW 09:34:05 55° SW 09:36:31 10° SSE
STARLINK-1447 2.2 09:31:51 10° NW 09:34:08 55° SW 09:36:34 10° SSE
STARLINK-1455 2.2 09:31:51 10° NW 09:34:08 55° SW 09:36:34 10° SSE
STARLINK-1441 2.2 09:31:52 10° NW 09:34:10 55° SW 09:36:35 10° SSE
STARLINK-1448 2.2 09:31:56 10° NW 09:34:13 55° SW 09:36:39 10° SSE
STARLINK-1449 2.2 09:31:57 10° NW 09:34:14 55° SW 09:36:40 10° SSE
STARLINK-1412 2.2 09:32:05 10° NW 09:34:23 54° SW 09:36:49 10° SSE
Cosmos 1151 Rocket 3.0 09:30:44 10° N 09:35:08 84° W 09:39:31 10° S
deb Chang Zheng 4 4.0 09:31:47 10° NNE 09:36:01 60° E 09:40:12 10° S
Cosmos 2151 4.3 09:34:37 17° WSW 09:36:42 24° WNW 09:40:11 10° NNW
CZ-2C R/B 3.0 09:33:48 10° N 09:37:28 49° WNW 09:40:32 14° SSW
STARLINK-1031 4.0 09:34:32 16° SSW 09:37:43 56° SE 09:41:47 10° NE
Cosmos 2333 Rocket 2.3 09:37:21 13° SSW 09:42:19 65° WNW 09:47:57 10° NNE
STARLINK-1024 3.9 09:39:18 15° SSW 09:42:41 64° SE 09:46:47 10° NE
Cosmos 1515 Rocket 4.0 09:39:30 10° N 09:43:50 66° E 09:48:08 10° SSE
STARLINK-1035 3.7 09:44:06 14° SW 09:47:39 72° SE 09:51:47 10° NE
Cosmos 2322 4.4 09:43:59 13° SW 09:48:36 39° WNW 09:53:57 10° N
Lacrosse 5 rocket 1.2 09:45:32 14° SW 09:49:03 80° NW 09:52:57 10° NE
Cosmos 2219 Rocket 2.3 09:44:09 12° SW 09:49:20 60° WNW 09:54:52 10° NNE
Cosmos 2112 Rocket 4.4 09:47:18 10° S 09:52:28 67° ESE 09:57:44 10° NNE
STARLINK-1032 3.7 09:48:52 12° SW 09:52:36 80° SE 09:56:45 10° NE
BREEZE-M DEB (TANK) 2.9 09:47:52 11° WSW 09:53:00 71° NNW 09:55:52 10° NE
Meteor 1-26 Rocket 4.4 09:47:09 10° N 09:53:05 87° E 09:59:05 10° S
STARLINK-29 2.8 09:52:39 10° NW 09:55:48 65° SW 09:58:55 10° SE
STARLINK-1037 3.6 09:52:08 12° SW 09:55:59 87° SE 10:00:08 10° NE
SAR-Lupe-1 4.2 09:53:30 10° SSE 09:57:02 78° ENE 10:00:36 10° N
STARLINK-1011 3.6 09:53:39 11° SW 09:57:34 89° SE 10:01:44 10° NE
Cosmos 2344 3.6 09:50:34 10° SSW 09:58:18 86° WNW 10:06:01 10° NNE
Cosmos 1633 2.5 09:55:21 10° S 09:58:54 75° W 10:02:31 10° N
BREEZE-M DEB (TANK) 4.4 09:56:32 10° NNW 09:59:11 31° NE 10:04:42 10° ESE
Shenzhou-11 Module 4.2 09:58:30 10° NW 10:00:24 19° NNE 10:02:18 10° ENE
ATLAS 5 CENTAUR R/B 1.4 09:57:59 10° SSW 10:02:00 86° ESE 10:06:22 10° NNE
CZ-2C R/B 2.7 09:56:47 10° NNE 10:02:00 82° ESE 10:07:08 10° S
STARLINK-1036 3.6 09:58:27 10° SW 10:02:33 82° NW 10:06:43 10° NE
USA 32 4.0 09:59:15 10° S 10:04:28 75° W 10:09:43 10° N
Cosmos 1743 Rocket 3.6 10:01:14 10° SSW 10:05:36 64° W 10:09:57 10° N
STARLINK-1044 3.7 10:03:25 10° SW 10:07:32 74° NW 10:11:41 10° NE
IDEFIX/ARIANE 42P 3.6 10:03:30 10° N 10:07:58 29° WNW 10:12:24 10° SW
CZ-4B R/B 1.2 10:06:01 10° SSE 10:09:05 87° ENE 10:12:11 10° N
Cosmos 1346 Rocket 2.8 10:07:33 10° SSW 10:11:33 77° W 10:15:32 10° N
STARLINK-1047 3.8 10:08:23 10° SW 10:12:29 67° NW 10:16:37 10° NE
Meteor 2-3 Rocket 4.3 10:07:49 10° SW 10:13:02 39° WNW 10:18:16 10° N
Cosmos 1844 4.0 10:08:45 10° NNW 10:14:16 47° WSW 10:19:45 10° S
